[[{"header":{"parameterUnit":"m.s-1","parameterCategory":1,"la1":30.2991,"la2":30.254,"lo1":-89.0895,"lo2":-89.0444,"dy":0.0017,"dx":0.0017,"nx":28,"ny":28,"refTime":"2025-05-21T03:00:00:Z","depth":0,"parameterNumber":2,"parameterNumberName":"U-component_of_WINDS"},"data":[0,0,0,0,0,0,0,0,0,0,0,0,0,0,0,0,0,0,0,0,0,0,0,0,0,0,0,0,0,0,0,0,0,0,0,0,0,0,0,0,0,0,0,0,0,0,0,0,0,0,0,0,0,0,0,0,0,0,-0.2108,-0.2109,0,-0.2235,-0.2236,-0.2238,-0.2363,-0.2364,-0.2366,-0.2368,-0.2497,-0.2499,-0.25,0,0,0,0,0,0,0,0,0,0,0,0,0,-0.1971,-0.1973,-0.2108,-0.2109,-0.2111,-0.2235,-0.2237,-0.2238,-0.2363,-0.2365,-0.2367,-0.2368,-0.2496,-0.2498,-0.2501,0,0,0,0,0,0,0,0,0,0,0,0,0,-0.2057,-0.1974,-0.2107,-0.2188,-0.2196,-0.2234,-0.2237,-0.2239,-0.2362,-0.2365,-0.2367,-0.2369,-0.2495,-0.2498,-0.2501,-0.2469,0,0,-0.251,-0.2511,0,0,0,0,0,0,0,0,-0.2052,-0.2062,-0.2174,-0.2182,-0.2192,-0.2286,-0.2236,-0.2316,-0.2362,-0.2299,-0.2368,-0.2371,-0.2424,-0.2433,-0.2452,-0.2475,-0.2481,-0.251,-0.2512,-0.2513,-0.2514,0,0,0,0,0,0,0,-0.2046,-0.2058,-0.2158,-0.2176,-0.2187,-0.2217,-0.2232,-0.2252,-0.2346,-0.2305,-0.2314,-0.2328,-0.243,-0.2449,-0.2456,-0.2483,-0.251,-0.2512,-0.2514,-0.2515,-0.2487,-0.2484,0,0,0,0,0,0,-0.2028,-0.2052,-0.2154,-0.2162,-0.2127,-0.2218,-0.2234,-0.2253,-0.2347,-0.2363,-0.2325,-0.2333,-0.2443,-0.2452,-0.2461,-0.2429,-0.2513,-0.2516,-0.2517,-0.2489,-0.2486,-0.2483,0,0,0,0,0,0,-0.2025,-0.2036,-0.2149,-0.2109,-0.2126,-0.2217,-0.2237,-0.2254,-0.2273,-0.2362,-0.238,-0.2327,-0.2445,-0.2457,-0.2466,-0.2435,-0.2517,-0.2519,-0.2492,-0.2488,-0.2485,-0.2364,0,0,0,0,0,0,-0.202,-0.2034,-0.2023,-0.2108,-0.2128,-0.2152,-0.2235,-0.2255,-0.2278,-0.2289,-0.2369,-0.2384,-0.2448,-0.2461,-0.2469,-0.244,-0.2522,-0.2495,-0.249,-0.2486,-0.2372,-0.2357,-0.2345,0,0,0,0,0,-0.2015,-0.1984,-0.2022,-0.2034,-0.2116,-0.215,-0.2161,-0.2235,-0.2275,-0.2264,-0.2322,-0.2381,-0.2438,-0.2461,-0.2471,-0.2442,-0.2497,-0.2492,-0.2486,-0.2378,-0.236,-0.2345,0,0,0,0,0,0,-0.1892,-0.1997,-0.204,-0.2036,-0.2083,-0.2171,-0.216,-0.2214,-0.2251,-0.226,-0.235,-0.2367,-0.2366,-0.2406,-0.243,-0.2417,-0.2476,-0.2472,-0.239,-0.2374,-0.2361,-0.235,-0.2524,0,0,0,0,0,-0.1865,-0.1884,-0.1975,-0.1962,-0.1984,-0.2067,-0.2085,-0.2138,-0.2191,-0.2211,-0.2269,-0.2317,-0.2346,-0.2363,-0.2394,-0.2379,-0.2397,-0.2365,-0.2351,-0.234,-0.2334,-0.2328,-0.2314,-0.2465,-0.2465,-0.2465,0,0,-0.1808,-0.1868,-0.1874,-0.1939,-0.1982,-0.1999,-0.2083,-0.2098,-0.2111,-0.2214,-0.2225,-0.227,-0.233,-0.2326,-0.2328,-0.236,-0.2297,-0.2333,-0.2323,-0.2324,-0.2321,-0.2306,-0.2293,-0.2461,-0.2462,-0.2463,0,0,-0.1713,-0.1761,-0.1755,-0.1796,-0.1861,-0.1917,-0.1915,-0.1995,-0.2028,-0.2042,-0.2119,-0.2136,-0.2184,-0.2223,-0.2249,-0.217,-0.2225,-0.2178,-0.2106,-0.2099,-0.2087,-0.2077,-0.2046,-0.2034,-0.2173,-0.2172,-0.2172,0,-0.1633,-0.1663,-0.1745,-0.1755,-0.178,-0.1875,-0.1869,-0.1905,-0.1976,-0.1991,-0.2027,-0.2088,-0.2135,-0.2141,-0.2122,-0.2141,-0.2141,-0.2167,-0.2082,-0.2073,-0.2064,-0.2036,-0.2025,-0.2166,-0.2167,-0.2167,-0.2168,0,-0.1561,-0.1581,-0.1568,-0.1634,-0.1659,-0.1661,-0.1743,-0.1758,-0.181,-0.1862,-0.1874,-0.1934,-0.1979,-0.1985,-0.2036,-0.1998,-0.2016,-0.2065,-0.2126,-0.2042,-0.2017,-0.2007,-0.2157,-0.2159,-0.2161,-0.2163,0,0,-0.139,-0.1502,-0.1496,-0.1526,-0.1605,-0.1621,-0.1627,-0.1671,-0.1682,-0.1728,-0.1734,-0.1773,-0.1819,-0.1849,-0.1905,-0.1899,-0.1829,-0.195,-0.1952,-0.1923,-0.179,-0.175,-0.1736,-0.1868,-0.1867,-0.1865,-0.1784,0,-0.1306,-0.1322,-0.1396,-0.1391,-0.1409,-0.1499,-0.1505,-0.1553,-0.1602,-0.1624,-0.168,-0.1704,-0.1765,-0.1783,-0.1781,-0.1838,-0.1803,-0.1846,-0.1873,-0.1873,-0.1852,-0.1723,-0.1681,-0.1601,-0.1775,-0.1773,-0.1772,0,-0.1209,-0.1249,-0.1244,-0.1322,-0.1333,-0.1336,-0.1382,-0.1403,-0.1459,-0.1496,-0.1529,-0.1592,-0.1603,-0.1662,-0.1678,-0.1704,-0.1721,-0.1751,-0.175,-0.1752,-0.1815,-0.172,-0.1578,-0.1564,-0.1758,-0.1759,-0.176,0,-0.108,-0.1134,-0.1138,-0.1162,-0.1253,-0.1253,-0.1291,-0.1351,-0.1372,-0.1413,-0.1427,-0.1469,-0.149,-0.1521,-0.1593,-0.163,-0.16,-0.1665,-0.1629,-0.1627,-0.1616,-0.1615,-0.1471,-0.1631,-0.1631,-0.1632,-0.1632,0,-0.0977,-0.097,-0.1081,-0.1083,-0.1079,-0.1165,-0.1157,-0.1204,-0.1256,-0.1268,-0.1351,-0.136,-0.1457,-0.1477,-0.1535,-0.1538,-0.1548,-0.1576,-0.1591,-0.1567,-0.1563,-0.1577,-0.1583,-0.1628,-0.1629,-0.163,-0.163,0,-0.0831,-0.0906,-0.0916,-0.1002,-0.1024,-0.1016,-0.1089,-0.1094,-0.115,-0.1164,-0.1173,-0.1258,-0.1287,-0.1363,-0.1412,-0.145,-0.1436,-0.1466,-0.1417,-0.1425,-0.1383,-0.1385,-0.1241,-0.1225,-0.1397,-0.1396,-0.1394,0,-0.0758,-0.0755,-0.0841,-0.0855,-0.089,-0.0912,-0.0935,-0.102,-0.104,-0.1104,-0.1101,-0.1137,-0.1169,-0.1211,-0.1277,-0.1314,-0.1343,-0.1291,-0.1349,-0.1325,-0.1339,-0.1337,-0.1336,-0.1276,-0.1274,-0.1272,-0.1271,0,-0.062,-0.0658,-0.0687,-0.0729,-0.0754,-0.0791,-0.0833,-0.084,-0.0936,-0.0954,-0.0984,-0.1009,-0.1059,-0.1092,-0.114,-0.118,-0.1239,-0.1252,-0.1245,-0.1219,-0.1189,-0.1202,-0.1378,-0.1254,-0.1256,-0.1257,-0.1258,-0.1258,-0.0507,-0.0508,-0.0568,-0.0598,-0.0639,-0.0676,-0.0685,-0.0742,-0.0768,-0.0815,-0.0865,-0.0889,-0.0946,-0.1017,-0.1052,-0.1072,-0.1104,-0.1094,-0.1091,-0.1087,-0.1074,-0.1189,-0.1081,-0.1082,-0.1082,-0.1083,-0.1083,0,-0.0371,-0.0415,-0.0442,-0.0497,-0.0521,-0.0578,-0.0627,-0.0642,-0.0663,-0.0711,-0.0742,-0.0776,-0.0809,-0.0879,-0.0918,-0.092,-0.0949,-0.0927,-0.0926,-0.0934,-0.1045,-0.1046,-0.0903,-0.0904,-0.0904,-0.0904,-0.0904,-0.0904,-0.0303,-0.0307,-0.0351,-0.0376,-0.042,-0.0444,-0.0467,-0.0502,-0.0541,-0.0575,-0.0603,-0.0649,-0.0706,-0.075,-0.0782,-0.0802,-0.0811,-0.078,-0.0808,-0.091,-0.0926,-0.0943,-0.0944,-0.0782,-0.0782,-0.0695,-0.0694,-0.0693]},{"header":{"parameterUnit":"m.s-1","parameterCategory":1,"la1":30.2991,"la2":30.254,"lo1":-89.0895,"lo2":-89.0444,"dy":0.0017,"dx":0.0017,"nx":28,"ny":28,"refTime":"2025-05-21T03:00:00:Z","depth":0,"parameterNumber":3,"parameterNumberName":"V-component_of_WINDS"},"data":[0,0,0,0,0,0,0,0,0,0,0,0,0,0,0,0,0,0,0,0,0,0,0,0,0,0,0,0,0,0,0,0,0,0,0,0,0,0,0,0,0,0,0,0,0,0,0,0,0,0,0,0,0,0,0,0,0,0,0.0076,0.0075,0,0.0041,0.004,0.004,-0.0013,-0.0014,-0.0015,-0.0016,-0.005,-0.005,-0.005,0,0,0,0,0,0,0,0,0,0,0,0,0,0.0098,0.0098,0.0076,0.0075,0.0075,0.0041,0.004,0.004,-0.0013,-0.0014,-0.0016,-0.0017,-0.005,-0.005,-0.005,0,0,0,0,0,0,0,0,0,0,0,0,0,0.0078,0.0098,0.0076,0.0044,0.0041,0.0041,0.004,0.004,-0.0013,-0.0014,-0.0016,-0.0017,-0.005,-0.005,-0.005,-0.0022,0,0,-0.005,-0.005,0,0,0,0,0,0,0,0,0.0079,0.0078,0.0049,0.0046,0.0043,0.0017,0.0036,0.0019,-0.0013,0.0008,-0.0016,-0.0018,-0.0027,-0.0029,-0.0032,-0.0023,-0.0025,-0.005,-0.005,-0.005,-0.005,0,0,0,0,0,0,0,0.0081,0.0079,0.0062,0.0049,0.0045,0.0032,0.0028,0.0032,-0.0001,0.0006,0.0002,-0.0002,-0.0029,-0.0032,-0.0033,-0.0025,-0.005,-0.005,-0.005,-0.005,0.0005,0.0007,0,0,0,0,0,0,0.0087,0.008,0.0063,0.0061,0.0058,0.0033,0.0028,0.0027,-0.0001,-0.0007,-0.0,-0.0004,-0.0031,-0.0033,-0.0035,-0.0003,-0.005,-0.005,-0.005,0.0004,0.0005,0.0007,0,0,0,0,0,0,0.0087,0.0086,0.0065,0.0069,0.0066,0.0034,0.0033,0.0027,0.0023,-0.0006,-0.0012,0.0002,-0.0032,-0.0035,-0.0025,-0.0005,-0.005,-0.005,0.0002,0.0004,0.0006,0.006,0,0,0,0,0,0,0.0088,0.0086,0.0097,0.007,0.0066,0.0075,0.0034,0.0027,0.0023,0.0018,-0.0005,-0.001,-0.0034,-0.0024,-0.0025,-0.0006,-0.005,-0.0,0.0003,0.0006,0.0057,0.0064,0.0071,0,0,0,0,0,0.0089,0.0114,0.0097,0.0096,0.0078,0.0076,0.0074,0.0046,0.0025,0.0035,0.0016,-0.0009,-0.0007,-0.0023,-0.0024,-0.0005,-0.0001,0.0002,0.0005,0.0054,0.0063,0.007,0,0,0,0,0,0,0.0144,0.011,0.0091,0.0108,0.0095,0.0067,0.0079,0.0056,0.005,0.0045,0.0011,0.0006,0.0021,0.0009,-0.0008,0.0021,-0.0008,-0.0005,0.0029,0.0037,0.0044,0.0047,-0.0051,0,0,0,0,0,0.0158,0.0159,0.0129,0.0146,0.0141,0.0111,0.0109,0.0089,0.0075,0.0069,0.0051,0.0039,0.0037,0.0036,0.0033,0.0055,0.0049,0.0067,0.0074,0.008,0.0084,0.0094,0.0102,0.0018,0.0018,0.0018,0,0,0.0186,0.0168,0.0171,0.0157,0.0145,0.0147,0.0107,0.0111,0.0113,0.007,0.0078,0.0065,0.0049,0.0065,0.0071,0.0056,0.0106,0.0084,0.0089,0.009,0.0099,0.0107,0.0114,0.002,0.002,0.002,0,0,0.024,0.0226,0.0239,0.0227,0.0209,0.0189,0.0193,0.0168,0.0157,0.0165,0.0133,0.0134,0.0131,0.0121,0.0116,0.0165,0.0142,0.0165,0.0202,0.0213,0.0219,0.0225,0.0243,0.025,0.0169,0.0169,0.0169,0,0.0278,0.028,0.0249,0.0255,0.0249,0.021,0.0223,0.0214,0.0196,0.0194,0.0176,0.0171,0.0158,0.0171,0.0183,0.018,0.0183,0.0168,0.0221,0.0226,0.0231,0.0248,0.0255,0.0172,0.0171,0.0171,0.0171,0,0.0328,0.033,0.0342,0.0325,0.0321,0.0331,0.0302,0.0302,0.0281,0.0263,0.0272,0.0254,0.0246,0.0248,0.0228,0.0258,0.0249,0.0227,0.0196,0.0243,0.0258,0.0264,0.0176,0.0175,0.0174,0.0173,0,0,0.0415,0.0381,0.0386,0.0378,0.0355,0.0356,0.0363,0.0355,0.0356,0.0345,0.0351,0.0349,0.0328,0.0322,0.0301,0.031,0.0351,0.0287,0.0286,0.03,0.0383,0.0401,0.0409,0.0335,0.0336,0.0337,0.0385,0,0.0465,0.0476,0.0448,0.0466,0.0467,0.043,0.0436,0.0424,0.0407,0.0406,0.0388,0.0387,0.0359,0.0355,0.0363,0.0345,0.0368,0.0341,0.0341,0.0341,0.0346,0.0417,0.0435,0.0481,0.0391,0.0392,0.0392,0,0.0524,0.0515,0.0533,0.0509,0.0509,0.0515,0.0505,0.0505,0.0489,0.0476,0.047,0.0445,0.0451,0.0422,0.043,0.0413,0.0411,0.0402,0.0403,0.0402,0.037,0.0418,0.0495,0.0502,0.0401,0.0401,0.04,0,0.0586,0.0579,0.0589,0.0583,0.0555,0.056,0.0549,0.0532,0.0529,0.0521,0.0518,0.0511,0.0507,0.0502,0.0476,0.0457,0.0488,0.0456,0.0478,0.0479,0.0487,0.0487,0.0565,0.0485,0.0485,0.0485,0.0485,0,0.0644,0.0657,0.0616,0.0623,0.0636,0.0603,0.0618,0.0603,0.0588,0.0591,0.0558,0.0562,0.0527,0.0527,0.0506,0.0517,0.0515,0.0506,0.05,0.0509,0.051,0.0508,0.0504,0.0487,0.0486,0.0486,0.0486,0,0.0716,0.0689,0.0698,0.067,0.0664,0.0675,0.0652,0.0656,0.0638,0.0642,0.0641,0.0612,0.061,0.0583,0.0576,0.0562,0.0581,0.0569,0.0586,0.0582,0.0606,0.0604,0.0686,0.0695,0.0609,0.061,0.0611,0,0.0755,0.0764,0.0737,0.0737,0.0727,0.0726,0.0723,0.0691,0.0689,0.0672,0.0679,0.0674,0.0669,0.0668,0.0646,0.064,0.0629,0.0657,0.0628,0.0636,0.0629,0.0629,0.063,0.0664,0.0665,0.0666,0.0667,0,0.0827,0.0814,0.0809,0.0801,0.0797,0.0789,0.0779,0.078,0.0745,0.0745,0.0742,0.0738,0.073,0.0726,0.0716,0.0705,0.0681,0.0676,0.0681,0.069,0.07,0.0695,0.0604,0.0675,0.0674,0.0673,0.0673,0.0673,0.0884,0.089,0.0872,0.0869,0.0858,0.0849,0.0852,0.0833,0.083,0.0821,0.0803,0.0803,0.0787,0.0772,0.0763,0.0763,0.0748,0.0755,0.0757,0.0759,0.0764,0.0699,0.0761,0.0761,0.076,0.076,0.076,0,0.0955,0.0942,0.0939,0.0925,0.0922,0.0898,0.0886,0.0885,0.0886,0.0873,0.0868,0.0865,0.0861,0.0839,0.0833,0.0837,0.0826,0.0837,0.0836,0.0834,0.0777,0.0774,0.0846,0.0846,0.0846,0.0846,0.0846,0.0846,0.0992,0.1001,0.0985,0.0988,0.0975,0.0974,0.0969,0.0961,0.095,0.0949,0.0945,0.093,0.0914,0.0906,0.0901,0.0895,0.0894,0.0909,0.0899,0.0846,0.0838,0.083,0.0827,0.0909,0.0909,0.0956,0.0956,0.0957]}]]